Regional Weather Roundup
Issued by NWS

Home | Current Version | Previous Version | Graphics & Text | Print | Product List | Glossary Off
Versions: 1 2 3 4 5 6 7 8 9 10 11 12 13 14 15 16 17 18 19 20 21 22 23 24 25 26 27 28 29 30 31 32 33 34 35 36 37 38 39 40 41 42 43 44 45 46 47 48 49 50

000
ASUS43 KIND 201009
RWRIN

WEATHER ROUNDUP FOR INDIANA
NATIONAL WEATHER SERVICE INDIANAPOLIS IN
500 AM EST FRI JAN 20 2017

NOTE: "FAIR" INDICATES FEW OR NO CLOUDS BELOW 12,000 FEET WITH NO
SIGNIFICANT WEATHER AND/OR OBSTRUCTIONS TO VISIBILITY.

* - STATION DOES NOT REPORT WEATHER SUCH AS PRECIPITATION OR FOG.

+ - STATION NOT QUALITY CONTROLLED BY THE NATIONAL WEATHER SERVICE.
    USE DATA WITH CAUTION...ESPECIALLY DEWPOINT AND RELATIVE
    HUMIDITY OBSERVATIONS.

INZ001>003-010>013-019-020-201100-
NORTHWEST INDIANA

CITY           SKY/WX    TMP DP  RH WIND       PRES   REMARKS
KNOX *+        CLOUDY    37  34  87 E5        29.61F
LA PORTE +     DRIZZLE   38  37  99 E7        29.62F
MICHIGAN CITY+ DRIZZLE   37  37 100 NE3       29.63F
MONTICELLO +   LGT RAIN  41  40  95 E5        29.60S
RENSSELAER +   DRIZZLE   41  41 100 E6        29.60F
VALPARAISO     LGT RAIN  39  39 100 E8        29.62S FOG

$$

LMZ046-743>745-201100-
SOUTHERN LAKE MICHIGAN

STATION/POSITION TIME  TEMP    WIND        PRES    WAVE
                       AIR SEA DIR/SP/G            HT
                 (UTC) (F)     (DEG/KT/KT) (MB)    (FT)
BURNS HARBOR     0940   35      70/  9/ 10 1004.1F
MICHIGAN CITY    0940   34      30/ 11/ 11   N/A

$$

INZ004-005-014>016-021>024-201100-
NORTH CENTRAL INDIANA

CITY           SKY/WX    TMP DP  RH WIND       PRES   REMARKS
GOSHEN         RAIN      37  34  89 E8        29.62F FOG
LOGANSPORT +   RAIN      39  39 100 E6        29.61S
PERU/GRISSOM   LGT RAIN  41  41 100 E8        29.58S
ROCHESTER +    RAIN      41  41 100 E8        29.61F
SOUTH BEND     LGT RAIN  38  37  97 E8        29.64F FOG
WARSAW +       RAIN      37  34  87 E9        29.61F

$$

INZ006>009-017-018-025>027-201100-
NORTHEAST INDIANA

CITY           SKY/WX    TMP DP  RH WIND       PRES   REMARKS
ANGOLA *+        N/A     36  36 100 E12       29.63F
AUBURN +       LGT RAIN  36  34  93 E9G17     29.63F
FORT WAYNE     LGT RAIN  39  36  89 E13       29.62F FOG
HUNTINGTON +   LGT RAIN  38  37  94 E5        29.61S
KENDALLVILLE + RAIN      36  36 100 E9        29.61F

$$

INZ028-029-035-036-043>045-051>053-201100-
WEST CENTRAL INDIANA

CITY           SKY/WX    TMP DP  RH WIND       PRES   REMARKS
CRAWFORDSVL +  LGT SNOW  43  43 100 CALM      29.58F
GREENCASTLE +  LGT RAIN  45  45 100 CALM      29.58F
LAFAYETTE      LGT RAIN  42  42 100 E6        29.59S FOG
TERRE HAUTE    LGT RAIN  50  49  96 SW9       29.59S

$$

INZ030>032-037>040-046>048-054>057-064-065-201100-
CENTRAL INDIANA

CITY           SKY/WX    TMP DP  RH WIND       PRES   REMARKS
CP ATTERBURY + LGT RAIN  45  45 100 CALM      29.60F
FISHERS *+     CLOUDY    43  43 100 CALM      29.59F
FRANKFORT +    HVY RAIN  46  45  97 SE3       29.61S
GREENWOOD *+   CLOUDY    46  46 100 S3        29.59F
INDIANAPOLIS   LGT RAIN  47  45  93 S7        29.58F
-EAGLE CREEK   RAIN      46  44  93 S3        29.58F FOG
KOKOMO +       LGT RAIN  41  40  96 E5        29.60F FOG
MARION +       RAIN      39  39 100 E7        29.60F
MT COMFORT *+  CLOUDY    43  43 100 S5        29.59F
SHELBYVILLE    LGT RAIN  46  44  93 SW3       29.59S FOG
ZIONSVILLE +   RAIN      43  43  99 S5        29.59S

$$

INZ033-034-041-042-049-050-058-059-201100-
EAST CENTRAL INDIANA

CITY           SKY/WX    TMP DP  RH WIND       PRES   REMARKS
MUNCIE         LGT RAIN  43  42  97 E5        29.59F FOG

$$

INZ060-061-067>069-081>083-085>088-201100-
SOUTHWEST INDIANA

CITY           SKY/WX    TMP DP  RH WIND       PRES   REMARKS
EVANSVILLE     CLOUDY    56  52  86 SW10      29.65S
HUNTINGBURG *+ CLOUDY    55  54  94 SW13      29.64S
WASHINGTON +   CLOUDY    54  53  94 SW8       29.61S

$$

INZ062-063-066-070>080-084-089>092-201100-
SOUTH CENTRAL AND SOUTHEAST INDIANA

CITY           SKY/WX    TMP DP  RH WIND       PRES   REMARKS
BLOOMINGTON    LGT RAIN  51  49  92 SW7       29.59F
MADISON *+     CLOUDY    50  48  93 SW3       29.65R
NORTH VERNON + LGT RAIN N/A N/A N/A SW6       29.62R
SEYMOUR +      DRIZZLE   48  48 100 CALM      29.62R

$$





USA.gov is the U.S. government's official web portal to all federal, state and local government web resources and services.